Regional Weather Roundup
Issued by NWS

Home | Current Version | Previous Version | Graphics & Text | Print | Product List | Glossary On
Versions: 1 2 3 4 5 6 7 8 9 10 11 12 13 14 15 16 17 18 19 20 21 22 23 24 25 26 27 28 29 30 31 32 33 34 35 36 37 38 39 40 41 42 43 44 45 46 47 48 49 50
778
ASUS43 KLSX 211907
RWRMO

WEATHER SUMMARY FOR MISSOURI
NATIONAL WEATHER SERVICE SPRINGFIELD MO
100 PM CST TUE NOV 21 2017

NOTE: "FAIR" INDICATES FEW OR NO CLOUDS BELOW 12,000 FEET WITH NO
       SIGNIFICANT WEATHER AND/OR OBSTRUCTIONS TO VISIBILITY.
       CURRENT SKY AND/OR WEATHER CONDITIONS ARE NOT AVAILABLE FOR
       CHILLICOTHE AND FARMINGTON.

MOZ001>031-035>038-043-044-053-054-212000-
...NORTHERN AND WESTERN MISSOURI...

CITY           SKY/WX    TMP DP  RH WIND       PRES   REMARKS
KANSAS CTY INT MOSUNNY   50  19  29 N18G30    30.11R
KANSAS C DTWN  SUNNY     51  21  30 N20G28    30.11R
LEE`S SUMMIT   SUNNY     50  24  36 N20G30    30.11R
ST JOSEPH      SUNNY     45   6  20 N30G39    30.16R
CHILLICOTHE      N/A     49  17  28 NW15G24   30.09R
KIRKSVILLE     CLOUDY    46  20  35 N18       30.05R

$$
MOZ066>068-077>081-088>096-101>105-212000-
...SOUTHWEST MISSOURI...

CITY           SKY/WX    TMP DP  RH WIND       PRES   REMARKS
SPRINGFIELD    PTSUNNY   55  36  48 N12       30.00R
JOPLIN         SUNNY     57  36  45 NE13G22   30.03F

$$
MOZ032>034-039>042-045>050-055>058-069>072-212000-
...CENTRAL MISSOURI...

CITY           SKY/WX    TMP DP  RH WIND       PRES   REMARKS
COLUMBIA       CLOUDY    52  30  43 N16       30.02R
JEFFERSON CITY CLOUDY    54  30  40 N7        30.01R
ROLLA          MOSUNNY   56  33  42 N9        30.00R
SEDALIA        CLOUDY    50  31  48 N18       30.08R
WHITEMAN AFB   MOSUNNY   51  29  41 N17G24    30.03R
WARRENSBURG    MOSUNNY   52  28  40 NW14G22   30.08R
OSAGE BEACH    CLOUDY    54  32  43 N6        30.03R

$$
MOZ051-052-059>065-212000-
...EAST CENTRAL MISSOURI...

CITY           SKY/WX    TMP DP  RH WIND       PRES   REMARKS
ST LOUIS INTL  CLOUDY    56  35  45 W8        29.97R
SPIRIT OF STL  PTSUNNY   57  34  41 N8        29.96R
ST CHARLES     PTSUNNY   56  29  35 NW7       29.96R

$$
MOZ072>076-082>087-097>100-106>115-212000-
...SOUTH CENTRAL AND SOUTHEAST MISSOURI...

CITY           SKY/WX    TMP DP  RH WIND       PRES   REMARKS
CAPE GIRARDEAU CLOUDY    54  39  57 SW9       29.98R
FARMINGTON     CLOUDY    57  35  43 VRB5      29.96S
POPLAR BLUFF   PTSUNNY   57  39  51 S10       29.98S
WEST PLAINS    SUNNY     60  34  37 N6        29.97F

$$



USA.gov is the U.S. government's official web portal to all federal, state and local government web resources and services.